Time,TemperatureF,DewpointF,PressureIn,WindDirection,WindDirectionDegrees,WindSpeedMPH,WindSpeedGustMPH,Humidity,HourlyPrecipIn,Conditions,Clouds,dailyrainin,SoftwareType,DateUTC
2013-08-14 00:52:00,60.0,56.0,29.92,West,259,0.0,-999.0,88,-99.99,,,-99.99,,2013-08-14 07:52:00,
2013-08-14 01:21:00,59.0,56.0,29.92,West,259,0.0,-999.0,90,-99.99,,,-99.99,,2013-08-14 08:21:00,
2013-08-14 01:51:00,59.0,56.0,29.91,West,259,0.0,-999.0,91,-99.99,,,-99.99,,2013-08-14 08:51:00,
2013-08-14 02:11:00,59.0,57.0,29.91,West,259,0.0,-999.0,92,-99.99,,,-99.99,,2013-08-14 09:11:00,
2013-08-14 02:21:00,59.0,57.0,29.91,West,259,0.0,-999.0,92,-99.99,,,-99.99,,2013-08-14 09:21:00,
2013-08-14 02:52:00,58.0,56.0,29.91,West,259,0.0,-999.0,92,-99.99,,,-99.99,,2013-08-14 09:52:00,
2013-08-14 03:11:00,58.0,56.0,29.91,West,259,0.0,-999.0,93,-99.99,,,-99.99,,2013-08-14 10:11:00,
2013-08-14 03:22:00,58.0,56.0,29.91,West,259,0.0,-999.0,93,-99.99,,,-99.99,,2013-08-14 10:22:00,
2013-08-14 03:52:00,57.0,55.0,29.91,West,259,0.0,-999.0,93,-99.99,,,-99.99,,2013-08-14 10:52:00,
2013-08-14 04:11:00,57.0,55.0,29.91,West,259,0.0,-999.0,93,-99.99,,,-99.99,,2013-08-14 11:11:00,
2013-08-14 04:21:00,57.0,55.0,29.91,West,259,0.0,-999.0,93,-99.99,,,-99.99,,2013-08-14 11:21:00,
2013-08-14 04:51:00,58.0,56.0,29.91,West,259,0.0,-999.0,94,-99.99,,,-99.99,,2013-08-14 11:51:00,
2013-08-14 05:11:00,57.0,55.0,29.91,West,259,0.0,-999.0,94,-99.99,,,-99.99,,2013-08-14 12:11:00,
2013-08-14 05:21:00,57.0,55.0,29.91,West,259,0.0,-999.0,94,-99.99,,,-99.99,,2013-08-14 12:21:00,
2013-08-14 05:42:00,57.0,55.0,29.91,West,259,0.0,-999.0,94,-99.99,,,-99.99,,2013-08-14 12:42:00,
2013-08-14 05:52:00,57.0,55.0,29.91,West,259,0.0,-999.0,94,-99.99,,,-99.99,,2013-08-14 12:52:00,
2013-08-14 06:11:00,57.0,55.0,29.91,West,259,0.0,-999.0,94,-99.99,,,-99.99,,2013-08-14 13:11:00,
2013-08-14 06:21:00,57.0,55.0,29.91,West,259,0.0,-999.0,94,-99.99,,,-99.99,,2013-08-14 13:21:00,
2013-08-14 06:52:00,56.0,54.0,29.92,West,259,0.0,-999.0,94,-99.99,,,-99.99,,2013-08-14 13:52:00,
2013-08-14 07:11:00,56.0,54.0,29.92,West,259,0.0,-999.0,94,-99.99,,,-99.99,,2013-08-14 14:11:00,
2013-08-14 07:21:00,55.0,53.0,29.92,West,259,0.0,-999.0,94,-99.99,,,-99.99,,2013-08-14 14:21:00,
2013-08-14 07:52:00,56.0,55.0,29.93,West,259,0.0,-999.0,95,-99.99,,,-99.99,,2013-08-14 14:52:00,
2013-08-14 08:11:00,57.0,56.0,29.93,West,259,0.0,-999.0,95,-99.99,,,-99.99,,2013-08-14 15:11:00,
2013-08-14 08:22:00,58.0,57.0,29.94,West,259,0.0,-999.0,95,-99.99,,,-99.99,,2013-08-14 15:22:00,
2013-08-14 08:56:00,58.0,56.0,29.94,West,259,0.0,-999.0,94,-99.99,,,-99.99,,2013-08-14 15:56:00,
2013-08-14 09:13:00,59.0,57.0,29.94,West,259,0.0,-999.0,94,-99.99,,,-99.99,,2013-08-14 16:13:00,
2013-08-14 09:24:00,59.0,57.0,29.95,West,259,0.0,-999.0,94,-99.99,,,-99.99,,2013-08-14 16:24:00,
2013-08-14 09:58:00,61.0,59.0,29.95,West,265,1.0,-999.0,93,-99.99,,,-99.99,,2013-08-14 16:58:00,
2013-08-14 10:20:00,62.0,59.0,29.94,West,265,1.0,-999.0,91,-99.99,,,-99.99,,2013-08-14 17:20:00,
2013-08-14 10:28:00,64.0,60.0,29.95,West,265,1.0,-999.0,88,-99.99,,,-99.99,,2013-08-14 17:28:00,
2013-08-14 10:55:00,67.0,61.0,29.94,WSW,257,1.0,-999.0,80,-99.99,,,-99.99,,2013-08-14 17:55:00,
2013-08-14 11:23:00,68.0,-99.9,29.94,SW,234,3.0,-999.0,78,-99.99,,,-99.99,,2013-08-14 18:23:00,
2013-08-14 11:54:00,73.0,62.0,29.94,WSW,247,2.0,-999.0,68,-99.99,,,-99.99,,2013-08-14 18:54:00,
2013-08-14 12:12:00,74.0,62.0,29.93,WSW,254,3.0,-999.0,67,-99.99,,,-99.99,,2013-08-14 19:12:00,
2013-08-14 12:23:00,75.0,62.0,29.93,WSW,240,3.0,-999.0,64,-99.99,,,-99.99,,2013-08-14 19:23:00,
2013-08-14 12:53:00,77.0,63.0,29.92,West,281,3.0,-999.0,61,-99.99,,,-99.99,,2013-08-14 19:53:00,
2013-08-14 13:11:00,78.0,62.0,29.92,WSW,240,2.0,-999.0,59,-99.99,,,-99.99,,2013-08-14 20:11:00,
2013-08-14 13:52:00,81.0,63.0,29.91,WSW,242,3.0,-999.0,55,-99.99,,,-99.99,,2013-08-14 20:52:00,
2013-08-14 14:13:00,82.0,64.0,29.91,WSW,256,3.0,-999.0,54,-99.99,,,-99.99,,2013-08-14 21:13:00,
2013-08-14 14:23:00,82.0,63.0,29.90,West,262,4.0,-999.0,53,-99.99,,,-99.99,,2013-08-14 21:23:00,
2013-08-14 14:55:00,83.0,64.0,29.89,West,263,3.0,-999.0,52,-99.99,,,-99.99,,2013-08-14 21:55:00,
2013-08-14 15:23:00,82.0,63.0,29.88,West,276,3.0,-999.0,52,-99.99,,,-99.99,,2013-08-14 22:23:00,
2013-08-14 15:54:00,83.0,63.0,29.87,West,260,1.0,-999.0,51,-99.99,,,-99.99,,2013-08-14 22:54:00,
2013-08-14 16:24:00,83.0,64.0,29.86,WSW,239,2.0,-999.0,52,-99.99,,,-99.99,,2013-08-14 23:24:00,
2013-08-14 16:56:00,82.0,62.0,29.86,WSW,257,3.0,-999.0,51,-99.99,,,-99.99,,2013-08-14 23:56:00,
2013-08-14 17:12:00,82.0,63.0,29.85,West,265,3.0,-999.0,52,-99.99,,,-99.99,,2013-08-15 00:12:00,
2013-08-14 17:22:00,82.0,63.0,29.85,West,268,3.0,-999.0,52,-99.99,,,-99.99,,2013-08-15 00:22:00,
2013-08-14 17:43:00,81.0,62.0,29.85,NW,307,2.0,-999.0,53,-99.99,,,-99.99,,2013-08-15 00:43:00,
2013-08-14 17:52:00,80.0,62.0,29.85,WSW,245,3.0,-999.0,54,-99.99,,,-99.99,,2013-08-15 00:52:00,
2013-08-14 18:16:00,79.0,61.0,29.85,WNW,303,2.0,-999.0,54,-99.99,,,-99.99,,2013-08-15 01:16:00,
2013-08-14 18:22:00,78.0,61.0,29.85,WSW,251,3.0,-999.0,56,-99.99,,,-99.99,,2013-08-15 01:22:00,
2013-08-14 18:52:00,77.0,63.0,29.84,WSW,258,1.0,-999.0,61,-99.99,,,-99.99,,2013-08-15 01:52:00,
2013-08-14 19:11:00,76.0,62.0,29.85,West,264,1.0,-999.0,62,-99.99,,,-99.99,,2013-08-15 02:11:00,
2013-08-14 19:21:00,75.0,62.0,29.85,West,267,1.0,-999.0,65,-99.99,,,-99.99,,2013-08-15 02:21:00,
2013-08-14 20:22:00,69.0,60.0,29.85,West,267,0.0,-999.0,74,-99.99,,,-99.99,,2013-08-15 03:22:00,
2013-08-14 20:53:00,67.0,60.0,29.86,West,267,0.0,-999.0,78,-99.99,,,-99.99,,2013-08-15 03:53:00,
2013-08-14 21:12:00,67.0,61.0,29.86,West,267,0.0,-999.0,80,-99.99,,,-99.99,,2013-08-15 04:12:00,
2013-08-14 21:22:00,66.0,60.0,29.86,West,267,0.0,-999.0,81,-99.99,,,-99.99,,2013-08-15 04:22:00,
2013-08-14 21:52:00,65.0,60.0,29.88,West,267,0.0,-999.0,83,-99.99,,,-99.99,,2013-08-15 04:52:00,
2013-08-14 22:12:00,64.0,59.0,29.89,West,267,0.0,-999.0,84,-99.99,,,-99.99,,2013-08-15 05:12:00,
2013-08-14 22:22:00,64.0,59.0,29.89,West,267,0.0,-999.0,84,-99.99,,,-99.99,,2013-08-15 05:22:00,
2013-08-14 22:52:00,63.0,58.0,29.90,West,267,0.0,-999.0,85,-99.99,,,-99.99,,2013-08-15 05:52:00,
2013-08-14 23:21:00,62.0,58.0,29.91,West,267,0.0,-999.0,86,-99.99,,,-99.99,,2013-08-15 06:21:00,
2013-08-14 23:51:00,62.0,58.0,29.91,West,267,0.0,-999.0,87,-99.99,,,-99.99,,2013-08-15 06:51:00,